CDT,Max TemperatureF,Mean TemperatureF,Min TemperatureF,Max Dew PointF,MeanDew PointF,Min DewpointF,Max Humidity, Mean Humidity, Min Humidity, Max Sea Level PressureIn, Mean Sea Level PressureIn, Min Sea Level PressureIn, Max VisibilityMiles, Mean VisibilityMiles, Min VisibilityMiles, Max Wind SpeedMPH, Mean Wind SpeedMPH, Max Gust SpeedMPH,PrecipitationIn, CloudCover, Events, WindDirDegrees
2013-9-1,73,64,57,64,59,53,94,81,66,29.98,29.84,29.72,10,10,6,7,3,,0.00,7,Rain,273
2013-9-2,64,53,42,54,49,41,100,83,56,30.11,30.04,29.98,10,9,3,7,2,21,0.01,5,Rain,10
2013-9-3,73,54,35,54,43,35,100,86,45,30.11,30.06,29.99,10,7,0,7,1,,0.00,3,Fog,260
2013-9-4,73,60,48,58,54,45,97,79,46,30.22,30.12,30.01,10,10,10,9,2,16,0.00,2,,41
2013-9-5,75,56,39,55,46,39,97,73,32,30.31,30.24,30.16,10,8,1,6,1,,0.00,0,,174
2013-9-6,86,68,52,67,61,50,93,74,51,30.16,30.01,29.89,10,10,10,10,3,18,0.00,3,,189
2013-9-7,87,74,61,69,63,57,97,79,51,30.11,29.98,29.88,10,10,5,12,3,20,0.00,2,,48
2013-9-8,69,60,51,60,53,49,93,76,54,30.15,30.08,29.95,10,10,10,10,3,,0.02,2,Rain,115
2013-9-9,82,70,60,72,65,57,100,90,69,29.94,29.79,29.66,10,6,0,12,3,18,0.15,6,Fog-Rain-Thunderstorm,152
2013-9-10,77,70,62,68,65,60,100,90,64,29.96,29.84,29.74,10,7,0,7,1,,0.03,6,Fog-Rain,236
2013-9-11,78,66,54,61,56,49,100,85,38,30.04,30.00,29.96,10,6,0,9,1,,0.10,2,Fog-Rain,285
2013-9-12,64,52,39,55,50,37,100,86,50,30.27,30.14,30.03,10,8,1,8,1,,0.00,4,,345
2013-9-13,64,48,33,48,38,34,100,89,46,30.31,30.25,30.14,10,5,0,4,0,,0.00,4,Fog,45
2013-9-14,70,52,34,55,46,32,97,78,47,30.12,30.03,29.96,10,9,3,9,2,,0.26,3,Rain,210
2013-9-15,59,45,33,54,47,31,100,91,68,30.37,30.15,29.96,10,8,0,14,2,23,0.10,6,Fog-Rain,35
2013-9-16,63,46,30,45,35,28,100,85,44,30.48,30.40,30.32,10,6,0,7,0,,0.00,4,Fog,139
2013-9-17,68,52,37,53,45,35,97,71,45,30.33,30.18,30.01,10,10,10,10,5,20,0.00,2,,173
2013-9-18,68,62,57,65,61,55,100,94,88,30.00,29.86,29.77,10,5,1,9,5,,0.16,7,Rain,157
2013-9-19,73,68,62,70,66,63,100,93,83,29.79,29.73,29.69,10,6,0,10,3,16,0.72,6,Fog-Rain-Thunderstorm,180
2013-9-20,64,56,48,63,54,43,100,88,60,29.89,29.78,29.72,10,8,2,9,4,20,0.09,7,Rain,286
2013-9-21,59,47,35,45,41,34,96,77,51,30.02,29.95,29.89,10,10,5,6,2,,0.00,5,,-1
2013-9-22,64,48,32,45,39,31,97,73,48,30.09,30.03,29.97,10,10,8,13,3,17,0.00,0,,146
2013-9-23,69,58,46,50,47,41,89,72,49,30.06,30.01,29.98,10,10,10,14,9,21,0.00,0,,153
2013-9-24,72,58,43,53,47,42,97,77,42,30.05,30.01,29.97,10,10,6,8,3,,0.00,0,,161
2013-9-25,72,54,37,54,46,36,97,79,46,30.04,30.00,29.96,10,9,3,10,1,,0.00,0,,162
2013-9-26,73,59,46,54,50,44,97,71,51,30.05,30.00,29.96,10,9,6,14,5,21,0.00,0,,154
2013-9-27,77,67,57,60,54,49,75,63,52,30.02,29.96,29.88,10,10,10,13,9,23,0.00,0,Rain,161
2013-9-28,72,60,46,63,53,44,100,85,50,29.92,29.77,29.62,10,7,1,17,10,36,0.45,6,Rain,193
2013-9-29,70,52,35,48,40,34,100,85,38,29.99,29.94,29.85,10,4,1,8,1,18,0.00,0,,181
2013-9-30,72,64,55,51,47,44,69,56,45,29.83,29.72,29.65,10,10,10,16,10,26,0.00,0,,182